Retour au catalogue

HULIANWANG DIGUI-165

ActifCommunicationsPO
NORAD 68657·PAYLOAD·🇨🇳 China

Lancé Apr 8, 2026 depuis Taiyuan Satellite Launch Center

Loading…

Prochains Passages (prochaines 24 heures)

TLE

FraisSource: Space-Track

Époque: Sep 14, 2026, 20:53 UTC

1 68657U 26076B   26257.87045026  .00000038  00000-0  53310-4 0  9994
2 68657  86.5048  13.6258 0001262 108.9380 251.1891 13.24409815 21243

Suivez HULIANWANG DIGUI-165 en temps réel avec AllMySat

Download on the App Store